www.pogodaiklimat.ru

Погода и климат >> Архив погоды >> Таиланд >> Районг


ПОГОДА в Районге

  • Прогноз погоды в Районге
  • Монитор погоды в Районге

АРХИВ ПОГОДЫ в Районге

Время (UTC), дата Ветер
(напр.,м/с)
 
Видим.   Явления Облачность Т
(С)
Тd
(С)
f
(%)
Тe
(С)
Тes
(С)
Комфортность P
(гПа)
Po
(гПа)
Тmin
(С)
Tmax
(С)
R
(мм)
R24
(мм)
S
(см)
03 14.07 З 5 12 км 3/0
[Cs]
+31.0 +23.3 64 +42 +49 опасность
перегрева
1009.2 1008.7
06 14.07 СЗ 7 12 км 3/0
[Cs]
+31.0 +23.8 66 +43 +48 опасность
перегрева
1007.6 1007.1
09 14.07 ЮЗ 6 10 км 5/0
[Cs]
+31.3 +23.7 64 +42 +45 опасность
перегрева
1005.6 1005.1
12 14.07 Ю 7 10 км 5/1 600 м
[Cu hum Ac trans Cs]
+30.0 +24.3 72 +42 +42 опасность
перегрева
1005.7 1005.2 +32.0
15 14.07 ЮЗ 3 10 км 8/3 600 м
[Cu med, cong Ac trans Cs]
+30.0 +25.8 78 +45 +45 опасность
перегрева
1007.4 1006.9
18 14.07 З 5 10 км 5/0
[Cs]
+29.7 +23.8 71 +41 +41 опасность
перегрева
1007.1 1006.6
21 14.07 СЗ 8 10 км 8/0
[Ac trans Cs]
+29.0 +23.3 71 +39 +39 очень
душно
1006.1 1005.6
00 15.07 З 5 10 км 10/0
[Cs]
+29.1 +23.9 74 +40 +41 очень
душно
1006.4 1005.9 +28.5
03 15.07 З 6 10 км 8/1 600 м
[Cu hum Ac lent Cs]
+30.8 +24.1 68 +43 +46 опасность
перегрева
1007.5 1007.0
06 15.07 ЮЗ 5 10 км 8/1 600 м
[Cu hum Ac lent Cs]
+31.4 +24.6 67 +44 +50 опасность
перегрева
1006.2 1005.6
09 15.07 ЮЗ 8 10 км 6/1 600 м
[Cu hum Ac lent Cs]
+31.4 +25.3 70 +45 +46 опасность
перегрева
1004.8 1004.3
12 15.07 З 6 10 км 8/1 600 м
[Cu hum Cs]
+30.0 +25.8 78 +45 +45 опасность
перегрева
1004.9 1004.4 +32.4
15 15.07 З 8 10 км 9/1 600 м
[Cu hum Ac und Cs]
+30.0 +25.0 75 +43 +43 опасность
перегрева
1006.7 1006.2
18 15.07 З 8 10 км 8/1 600 м
[Cu hum Ac lent Cs]
+29.5 +24.6 75 +42 +42 опасность
перегрева
1006.4 1005.9
21 15.07 З 4 10 км 5/0
[Cs]
+29.0 +23.9 74 +40 +40 очень
душно
1005.2 1004.7
00 16.07 СЗ 5 10 км 8/3 600 м
[Cu med, cong Ac trans Cs]
+29.0 +24.1 75 +40 +41 очень
душно
1006.3 1005.8 +28.0
03 16.07 З 5 12 км 5/1 600 м
[Cu hum Cs]
+31.0 +24.3 68 +43 +50 опасность
перегрева
1007.4 1006.9
06 16.07 З 5 12 км 5/1 600 м
[Cu hum Ac trans Cs]
+31.8 +24.4 65 +44 +52 опасность
перегрева
1005.8 1005.3
09 16.07 З 7 12 км 5/1 600 м
[Cu hum Cs]
+31.6 +25.5 70 +46 +48 опасность
перегрева
1003.4 1002.9
12 16.07 З 9 10 км 8/1 600 м
[Cu hum Ac trans Cs]
+30.4 +25.5 75 +45 +45 опасность
перегрева
1004.5 1004.0 +32.3
15 16.07 ЮЗ 8 10 км 8/1 600 м
[Cu hum Ac trans Cs]
+30.0 +26.5 82 +46 +46 опасность
перегрева
1005.6 1005.1
18 16.07 З 10 10 км 8/1 600 м
[Cu hum Ac trans Cs]
+30.0 +25.0 75 +43 +43 опасность
перегрева
1006.0 1005.4
21 16.07 З 10 10 км 10/0
[Ac trans Cs]
+29.5 +24.9 76 +42 +42 опасность
перегрева
1004.2 1003.7
00 17.07 З 8 10 км 8/3 600 м
[Sc Ac trans Cs]
+29.5 +24.5 75 +42 +42 опасность
перегрева
1004.7 1004.2 +29.0
03 17.07 З 8 12 км 3/1 600 м
[Cu hum Ac trans Cs]
+30.8 +24.2 68 +43 +45 опасность
перегрева
1006.2 1005.7
06 17.07 З 6 12 км 8/3 600 м
[Cu med, cong Ac lent Cs]
+31.7 +25.4 69 +46 +50 опасность
перегрева
1005.2 1004.7
09 17.07 З 6 12 км 9/4 600 м
[Cu Sc Ac und Cs]
+30.8 +25.7 74 +45 +46 опасность
перегрева
1009.8 1009.3
12 17.07 Ю 8 10 км 9/3 600 м
[Cu Sc Ac As Cs]
+30.0 +26.1 80 +45 +45 опасность
перегрева
1003.6 1003.0 +32.3
15 17.07 З 4 10 км 8/1 600 м
[Cu hum Ac lent Cs]
+29.8 +24.8 75 +43 +43 опасность
перегрева
1005.5 1005.0
18 17.07 СЗ 4 10 км 10/4 600 м
[Sc Ac As Cs]
+29.5 +25.2 78 +43 +43 опасность
перегрева
1005.4 1004.9
21 17.07 З 8 10 км 10/3 600 м
[Sc Ac trans Cs]
+29.2 +24.6 76 +41 +41 опасность
перегрева
1003.5 1003.0
00 18.07 З 10 12 км 9/1 600 м
[Cu hum Ac trans Cs]
+29.4 +24.5 75 +42 +42 опасность
перегрева
1004.6 1004.0 +29.1
03 18.07 ЮЗ 5 10 км 8/3 600 м
[Cu hum Ac trans Cs]
+30.0 +25.0 75 +43 +47 опасность
перегрева
1005.7 1005.2
06 18.07 ЮЗ 5 10 км 8/3 600 м
[Sc Ac trans Cs]
+30.2 +25.2 75 +44 +49 опасность
перегрева
1005.4 1004.9
09 18.07 ЮЗ 5 10 км 8/0
[Cs]
+30.0 +25.3 76 +44 +47 опасность
перегрева
1003.4 1002.9
12 18.07 Ю 9 10 км 8/1 600 м
[Cu hum Ac trans Cs]
+29.5 +25.8 81 +44 +44 опасность
перегрева
1004.5 1004.0 +31.0
15 18.07 З 8 10 км 8/3 600 м
[Cu med, cong Cs]
+29.3 +26.1 83 +44 +44 опасность
перегрева
1006.0 1005.5
18 18.07 З 7 10 км 5/1 600 м
[Cu hum Cs]
+29.5 +25.2 78 +43 +43 опасность
перегрева
1005.2 1004.7
21 18.07 З 8 10 км 6/1 600 м
[Cu hum Cs]
+29.0 +24.7 78 +41 +41 опасность
перегрева
1004.2 1003.7
00 19.07 З 8 10 км 9/6 600 м
[Sc Ac trans Cs]
+29.0 +25.3 80 +42 +42 опасность
перегрева
1005.5 1005.0 +28.8
03 19.07 З 6 10 км 9/3 600 м
[Cu Sc Ac trans Cs]
+30.0 +25.3 76 +44 +46 опасность
перегрева
1007.0 1006.5
06 19.07 ЮЗ 5 10 км 8/1 600 м
[Cu hum Cs]
+31.5 +25.1 69 +45 +54 опасность
перегрева
1005.9 1005.4
09 19.07 ЮЗ 10 10 км 9/4 600 м
[Cu Sc Ac As Cs]
+30.8 +25.6 74 +45 +45 опасность
перегрева
1004.4 1003.9
12 19.07 ЮЗ 8 12 км 10/3 600 м
[Cu hum Ac trans Cs]
+29.9 +26.4 82 +46 +46 опасность
перегрева
1004.9 1004.4 +32.0
15 19.07 З 11 12 км 9/1 600 м
[Cu hum Ac trans Cs]
+29.4 +25.6 80 +43 +43 опасность
перегрева
1006.9 1006.4
18 19.07 З 9 10 км 10/3 600 м
[Cu hum Cs]
+29.5 +26.0 81 +44 +44 опасность
перегрева
1006.8 1006.3
21 19.07 З 5 10 км 8/0
[Cs]
+29.0 +25.9 83 +43 +43 опасность
перегрева
1006.0 1005.5
00 20.07 З 5 10 км 8/3 600 м
[Sc Ac trans Cs]
+29.0 +25.5 81 +43 +43 опасность
перегрева
1007.1 1006.6 +28.5
03 20.07 ЮЗ 6 12 км 8/3 600 м
[Cu hum Cs]
+31.0 +25.0 70 +44 +48 опасность
перегрева
1008.2 1007.7
06 20.07 З 5 12 км 8/0
[Cs]
+31.0 +25.4 72 +45 +54 опасность
перегрева
1007.6 1007.1
09 20.07 ЮЗ 7 12 км 8/3 600 м
[Cb cap Ac trans Cs]
+31.0 +25.0 70 +44 +45 опасность
перегрева
1006.0 1005.4
12 20.07 ЮЗ 10 10 км 9/0
[Ac trans Cs]
+29.5 +25.2 78 +43 +43 опасность
перегрева
1006.2 1005.7 +32.0
15 20.07 З 10 10 км 8/0
[Cs]
+29.5 +26.0 81 +44 +44 опасность
перегрева
1007.8 1007.3
18 20.07 ЮЗ 8 10 км 8/0
[Cs]
+29.0 +25.5 81 +43 +43 опасность
перегрева
1008.5 1008.0
21 20.07 ЮЗ 10 10 км 10/1 600 м
[Cu hum Ac trans Cs]
+29.0 +25.8 83 +43 +43 опасность
перегрева
1007.3 1006.8

 

Местоположение метеостанции Районг (Таиланд): широта 12.63 долгота 101.35 высота над уровнем моря 5 м.

В архиве по умолчанию представлена погода в Районге за последнюю неделю. Архивные данные за месяц целиком и за предыдущие месяцы, начиная с января 2011 года, Вы можете получить, выбрав интересующий диапазон дат из раскрывающегося списка и нажав кнопку "Ввод!".


*Определитесь, кто Вы:
робот инопланетянин человек

Внимание! Время в таблицах - всемирное. Для получения местного времени необходимо прибавить поправку, которая равна 7 ч.

Смотрите также архив погоды в соседних городах и на ближайших метеорологических станциях:

Погода в Хуайпонг Агромете (Таиланд) (26 км)
Погода в Саттахипе (Таиланд) (41 км)
Погода в Паттайе (Таиланд) (62 км)
Погода в Чантабури (Таиланд) (83 км)
Погода на Ко Сичан (Таиланд) (85 км)
Погода в Фхлю Агромете (Таиланд) (90 км)
Погода в Чонбури (Таиланд) (92 км)
Погода в Ратбури (Таиланд) (92 км)
Погода в Чаченгсау (Таиланд) (97 км)
Погода в Бангкок Пилот (Таиланд) (116 км)

Пояснения к столбцам:

Ветер - указаны скорость ветра в м/с - средняя за 10 мин, порывы в срок и между сроками (в фигурных скобках) и направление, откуда дует ветер: С - северный, СВ - северо-восточный, В - восточный, ЮВ - юго-восточный, Ю - южный, ЮЗ - юго-западный, З - западный, СЗ - северо-западный.
Видимость - горизонтальная дальность видимости в метрах или километрах. При видимости от 1 до 10 км при отсутствии осадков обычно наблюдается дымка, при ухудшении видимости до 1 км и менее - туман. В сухую погоду видимость может ухудшаться дымом, пылью или мглою.
Явления - указаны атмосферные явления, наблюдавшиеся в срок или в последний час перед сроком; фигурными скобками обозначены явления, наблюдавшиеся между сроками (за 1-3 часа до срока); квадратными скобками обозначены град или гололедные отложения с указанием их диаметра в мм.
Облачность - указаны через наклонную черту общая и нижняя облачность в баллах и высота нижней границы облаков в метрах; квадратными скобками обозначены формы облаков: Ci - перистые, Cs - перисто-слоистые, Cc - перисто-кучевые, Ac - высококучевые, As - высокослоистые, Sc - слоисто-кучевые, Ns - слоисто-дождевые, Cu - кучевые, Cb - кучево-дождевые. Подробнее классификацию облаков см. в Атласе облаков (PDF).
T - Температура воздуха - температура, измеренная на высоте 2 м над землей.
Td - Температура точки росы - температура, при понижении до которой содержащийся в воздухе водяной пар достигнет насыщения.
f - Относительная влажность воздуха - влажноcть воздуха, измеренная на высоте 2 м над землей.
Te - Эффективная температура - температура, которую ощущает одетый по сезону человек в тени. Характеристика душности погоды. При расчете учитывается влияние влажности воздуха и скорости ветра на теплоощущения человека.
Tes - Эффективная температура на солнце - температура, которую ощущает человек, с поправкой на солнечный нагрев. Характеристика знойности погоды. Зависит от высоты солнца над горизонтом, облачности и скорости ветра. Ночью, в пасмурную погоду, а также при ветре 12 м/с и более поправка равна нулю.
P - Атмосферное давление - приведенное к уровню моря атмосферное давление.
Po - Атмосферное давление - измеренное на уровне метеостанции атмосферное давление.
Tmin - Минимальная температура - минимум температуры воздуха на высоте 2 м над землей.
Tmax - Максимальная температура - максимум температуры воздуха на высоте 2 м над землей.
R - Количество осадков - Количество выпавших осадков за период времени, мм. При наведении курсора мыши на число - период времени, за который выпало указанное количество осадков.
R24 - Количество осадков - Количество выпавших осадков за 24 часа, мм.
S - Снежный покров - Высота снежного покрова, см. При наведении курсора мыши на число - состояние снежного покрова и степень покрытия местности в баллах.